Time,TemperatureF,DewpointF,PressureIn,WindDirection,WindDirectionDegrees,WindSpeedMPH,WindSpeedGustMPH,Humidity,HourlyPrecipIn,Conditions,Clouds,dailyrainin,SoftwareType,DateUTC
2013-05-17 00:03:00,62.0,52.0,30.08,South,181,0.0,1.0,71,0.00,,,0.00,,2013-05-17 04:03:00,
2013-05-17 00:13:00,62.0,52.0,30.08,South,181,0.0,1.0,71,0.00,,,0.00,,2013-05-17 04:13:00,
2013-05-17 00:23:00,62.0,53.0,30.08,South,181,0.0,1.0,72,0.00,,,0.00,,2013-05-17 04:23:00,
2013-05-17 00:33:00,62.0,53.0,30.08,South,181,0.0,1.0,73,0.00,,,0.00,,2013-05-17 04:33:00,
2013-05-17 00:43:00,62.0,53.0,30.08,South,181,0.0,1.0,73,0.00,,,0.00,,2013-05-17 04:43:00,
2013-05-17 00:53:00,62.0,54.0,30.08,South,180,0.0,1.0,74,0.00,,,0.00,,2013-05-17 04:53:00,
2013-05-17 01:03:00,61.0,53.0,30.08,South,181,0.0,0.0,74,0.00,,,0.00,,2013-05-17 05:03:00,
2013-05-17 01:14:00,61.0,53.0,30.08,South,181,0.0,0.0,74,0.00,,,0.00,,2013-05-17 05:14:00,
2013-05-17 01:22:00,60.0,52.0,30.08,South,181,0.0,0.0,75,0.00,,,0.00,,2013-05-17 05:22:00,
2013-05-17 01:32:00,60.0,53.0,30.07,South,181,0.0,0.0,77,0.00,,,0.00,,2013-05-17 05:32:00,
2013-05-17 01:42:00,60.0,53.0,30.07,South,181,0.0,0.0,77,0.00,,,0.00,,2013-05-17 05:42:00,
2013-05-17 01:52:00,60.0,53.0,30.07,South,180,0.0,0.0,77,0.00,,,0.00,,2013-05-17 05:52:00,
2013-05-17 02:02:00,60.0,53.0,30.07,South,181,0.0,0.0,79,0.00,,,0.00,,2013-05-17 06:02:00,
2013-05-17 02:11:00,60.0,53.0,30.07,South,181,0.0,0.0,79,0.00,,,0.00,,2013-05-17 06:11:00,
2013-05-17 02:22:00,59.0,53.0,30.07,South,181,0.0,1.0,80,0.00,,,0.00,,2013-05-17 06:22:00,
2013-05-17 02:32:00,59.0,53.0,30.06,South,181,0.0,0.0,81,0.00,,,0.00,,2013-05-17 06:32:00,
2013-05-17 02:42:00,59.0,53.0,30.06,South,181,0.0,0.0,81,0.00,,,0.00,,2013-05-17 06:42:00,
2013-05-17 02:52:00,58.0,52.0,30.06,South,181,0.0,0.0,81,0.00,,,0.00,,2013-05-17 06:52:00,
2013-05-17 03:02:00,58.0,53.0,30.07,South,180,0.0,0.0,82,0.00,,,0.00,,2013-05-17 07:02:00,
2013-05-17 03:11:00,58.0,53.0,30.07,South,180,0.0,0.0,82,0.00,,,0.00,,2013-05-17 07:11:00,
2013-05-17 03:21:00,58.0,53.0,30.07,South,180,0.0,0.0,82,0.00,,,0.00,,2013-05-17 07:21:00,
2013-05-17 03:32:00,57.0,52.0,30.08,South,180,0.0,0.0,83,0.00,,,0.00,,2013-05-17 07:32:00,
2013-05-17 03:43:00,57.0,52.0,30.08,South,180,0.0,0.0,83,0.00,,,0.00,,2013-05-17 07:43:00,
2013-05-17 03:53:00,57.0,53.0,30.08,South,181,0.0,0.0,85,0.00,,,0.00,,2013-05-17 07:53:00,
2013-05-17 04:02:00,57.0,53.0,30.09,South,181,0.0,0.0,85,0.00,,,0.00,,2013-05-17 08:02:00,
2013-05-17 04:12:00,57.0,53.0,30.09,South,181,0.0,0.0,85,0.00,,,0.00,,2013-05-17 08:12:00,
2013-05-17 04:23:00,57.0,53.0,30.09,South,180,0.0,0.0,86,0.00,,,0.00,,2013-05-17 08:23:00,
2013-05-17 04:33:00,57.0,53.0,30.09,South,181,0.0,0.0,86,0.00,,,0.00,,2013-05-17 08:33:00,
2013-05-17 04:42:00,57.0,53.0,30.09,South,181,0.0,0.0,86,0.00,,,0.00,,2013-05-17 08:42:00,
2013-05-17 04:52:00,57.0,53.0,30.09,South,180,0.0,0.0,86,0.00,,,0.00,,2013-05-17 08:52:00,
2013-05-17 05:02:00,57.0,53.0,30.09,South,181,0.0,0.0,87,0.00,,,0.00,,2013-05-17 09:02:00,
2013-05-17 05:12:00,57.0,53.0,30.09,South,181,0.0,0.0,87,0.00,,,0.00,,2013-05-17 09:12:00,
2013-05-17 05:22:00,57.0,53.0,30.09,South,181,0.0,0.0,87,0.00,,,0.00,,2013-05-17 09:22:00,
2013-05-17 05:33:00,57.0,53.0,30.10,South,181,0.0,1.0,87,0.00,,,0.00,,2013-05-17 09:33:00,
2013-05-17 05:42:00,57.0,53.0,30.10,South,181,0.0,1.0,87,0.00,,,0.00,,2013-05-17 09:42:00,
2013-05-17 05:53:00,57.0,53.0,30.11,South,180,0.0,0.0,87,0.00,,,0.00,,2013-05-17 09:53:00,
2013-05-17 06:03:00,57.0,53.0,30.11,South,181,0.0,0.0,87,0.00,,,0.00,,2013-05-17 10:03:00,
2013-05-17 06:12:00,57.0,53.0,30.11,South,181,0.0,0.0,87,0.00,,,0.00,,2013-05-17 10:12:00,
2013-05-17 06:23:00,56.0,52.0,30.11,South,181,0.0,0.0,88,0.00,,,0.00,,2013-05-17 10:23:00,
2013-05-17 06:33:00,56.0,52.0,30.11,South,181,0.0,0.0,88,0.00,,,0.00,,2013-05-17 10:33:00,
2013-05-17 06:42:00,56.0,52.0,30.11,South,181,0.0,0.0,88,0.00,,,0.00,,2013-05-17 10:42:00,
2013-05-17 06:54:00,56.0,52.0,30.11,South,181,0.0,0.0,88,0.00,,,0.00,,2013-05-17 10:54:00,
2013-05-17 07:02:00,56.0,52.0,30.12,South,181,0.0,0.0,88,0.00,,,0.00,,2013-05-17 11:02:00,
2013-05-17 07:12:00,56.0,52.0,30.12,South,181,0.0,0.0,88,0.00,,,0.00,,2013-05-17 11:12:00,
2013-05-17 07:23:00,56.0,53.0,30.12,South,181,0.0,0.0,89,0.00,,,0.00,,2013-05-17 11:23:00,
2013-05-17 07:34:00,57.0,54.0,30.13,South,181,0.0,0.0,89,0.00,,,0.00,,2013-05-17 11:34:00,
2013-05-17 07:42:00,57.0,54.0,30.13,South,181,0.0,0.0,89,0.00,,,0.00,,2013-05-17 11:42:00,
2013-05-17 07:53:00,57.0,54.0,30.13,South,181,0.0,0.0,89,0.00,,,0.00,,2013-05-17 11:53:00,
2013-05-17 08:03:00,57.0,54.0,30.14,South,181,0.0,0.0,89,0.00,,,0.00,,2013-05-17 12:03:00,
2013-05-17 08:12:00,57.0,54.0,30.14,South,181,0.0,0.0,89,0.00,,,0.00,,2013-05-17 12:12:00,
2013-05-17 08:23:00,57.0,53.0,30.14,South,181,0.0,0.0,88,0.00,,,0.00,,2013-05-17 12:23:00,
2013-05-17 08:32:00,58.0,55.0,30.14,South,180,0.0,0.0,89,0.00,,,0.00,,2013-05-17 12:32:00,
2013-05-17 08:43:00,58.0,55.0,30.14,South,180,0.0,0.0,89,0.00,,,0.00,,2013-05-17 12:43:00,
2013-05-17 08:53:00,59.0,55.0,30.14,South,181,0.0,0.0,88,0.00,,,0.00,,2013-05-17 12:53:00,
2013-05-17 09:03:00,59.0,55.0,30.14,South,180,0.0,1.0,88,0.00,,,0.00,,2013-05-17 13:03:00,
2013-05-17 09:12:00,59.0,55.0,30.14,South,180,0.0,1.0,88,0.00,,,0.00,,2013-05-17 13:12:00,
2013-05-17 09:23:00,61.0,57.0,30.14,SSE,154,0.0,1.0,86,0.00,,,0.00,,2013-05-17 13:23:00,
2013-05-17 09:33:00,61.0,57.0,30.14,SSE,154,0.0,1.0,86,0.00,,,0.00,,2013-05-17 13:33:00,
2013-05-17 09:42:00,61.0,57.0,30.14,SSE,154,0.0,1.0,86,0.00,,,0.00,,2013-05-17 13:42:00,
2013-05-17 09:52:00,63.0,57.0,30.14,ESE,108,0.0,2.0,81,0.00,,,0.00,,2013-05-17 13:52:00,
2013-05-17 10:02:00,64.0,58.0,30.14,ESE,106,0.0,1.0,81,0.00,,,0.00,,2013-05-17 14:02:00,
2013-05-17 10:13:00,64.0,58.0,30.14,ESE,106,0.0,1.0,81,0.00,,,0.00,,2013-05-17 14:13:00,
2013-05-17 10:22:00,64.0,58.0,30.15,ESE,106,0.0,0.0,80,0.00,,,0.00,,2013-05-17 14:22:00,
2013-05-17 10:34:00,66.0,59.0,30.14,NE,54,0.0,3.0,78,0.00,,,0.00,,2013-05-17 14:34:00,
2013-05-17 10:43:00,66.0,59.0,30.14,NE,54,0.0,3.0,78,0.00,,,0.00,,2013-05-17 14:43:00,
2013-05-17 10:53:00,68.0,60.0,30.14,ENE,63,0.0,3.0,75,0.00,,,0.00,,2013-05-17 14:53:00,
2013-05-17 11:03:00,68.0,60.0,30.14,ENE,63,0.0,3.0,75,0.00,,,0.00,,2013-05-17 15:03:00,
2013-05-17 11:14:00,68.0,60.0,30.14,ENE,63,0.0,3.0,75,0.00,,,0.00,,2013-05-17 15:14:00,
2013-05-17 11:25:00,71.0,59.0,30.14,ENE,63,0.0,3.0,67,0.00,,,0.00,,2013-05-17 15:25:00,
2013-05-17 11:37:00,72.0,59.0,30.14,East,90,0.0,2.0,64,0.00,,,0.00,,2013-05-17 15:37:00,
2013-05-17 11:47:00,72.0,59.0,30.14,East,90,0.0,2.0,64,0.00,,,0.00,,2013-05-17 15:47:00,
2013-05-17 11:57:00,74.0,60.0,30.14,ENE,75,0.0,3.0,62,0.00,,,0.00,,2013-05-17 15:57:00,
2013-05-17 12:07:00,74.0,60.0,30.14,NE,42,0.0,2.0,62,0.00,,,0.00,,2013-05-17 16:07:00,
2013-05-17 12:14:00,74.0,60.0,30.14,NE,42,0.0,2.0,62,0.00,,,0.00,,2013-05-17 16:14:00,
2013-05-17 12:26:00,73.0,59.0,30.13,NNE,31,0.0,2.0,62,0.00,,,0.00,,2013-05-17 16:26:00,
2013-05-17 12:37:00,73.0,60.0,30.13,SSE,157,0.0,1.0,64,0.00,,,0.00,,2013-05-17 16:37:00,
2013-05-17 12:49:00,73.0,60.0,30.13,SSE,157,0.0,1.0,64,0.00,,,0.00,,2013-05-17 16:49:00,
2013-05-17 12:56:00,73.0,59.0,30.12,NW,311,0.0,3.0,62,0.00,,,0.00,,2013-05-17 16:56:00,
2013-05-17 13:08:00,73.0,59.0,30.12,South,172,0.0,4.0,62,0.00,,,0.00,,2013-05-17 17:08:00,
2013-05-17 13:19:00,73.0,59.0,30.12,South,172,0.0,4.0,62,0.00,,,0.00,,2013-05-17 17:19:00,
2013-05-17 13:30:00,72.0,58.0,30.12,SW,233,1.0,8.0,61,0.00,,,0.00,,2013-05-17 17:30:00,
2013-05-17 13:40:00,73.0,-99.9,30.12,ESE,110,0.0,5.0,63,0.00,,,0.00,,2013-05-17 17:40:00,
2013-05-17 13:49:00,73.0,60.0,30.12,ESE,110,0.0,5.0,63,0.00,,,0.00,,2013-05-17 17:49:00,
2013-05-17 14:00:00,73.0,-99.9,30.12,South,188,0.0,2.0,62,0.00,,,0.00,,2013-05-17 18:00:00,
2013-05-17 14:09:00,73.0,59.0,30.12,South,175,0.0,4.0,61,0.00,,,0.00,,2013-05-17 18:09:00,
2013-05-17 14:20:00,73.0,59.0,30.12,South,175,0.0,4.0,61,0.00,,,0.00,,2013-05-17 18:20:00,
2013-05-17 14:30:00,74.0,59.0,30.11,West,266,1.0,4.0,60,0.00,,,0.00,,2013-05-17 18:30:00,
2013-05-17 14:40:00,75.0,-99.9,30.11,WSW,238,0.0,3.0,56,0.00,,,0.00,,2013-05-17 18:40:00,
2013-05-17 14:50:00,-999.0,-99.9,30.11,WSW,238,0.0,3.0,56,0.00,,,0.00,,2013-05-17 18:50:00,
2013-05-17 15:00:00,77.0,-99.9,30.10,WSW,248,1.0,4.0,53,0.00,,,0.00,,2013-05-17 19:00:00,
2013-05-17 15:10:00,78.0,57.0,30.10,SSW,210,3.0,8.0,48,0.00,,,0.00,,2013-05-17 19:10:00,
2013-05-17 15:20:00,78.0,57.0,30.10,SSW,210,3.0,8.0,48,0.00,,,0.00,,2013-05-17 19:20:00,
2013-05-17 15:30:00,80.0,57.0,30.09,West,262,2.0,5.0,46,0.00,,,0.00,,2013-05-17 19:30:00,
2013-05-17 15:40:00,78.0,57.0,30.09,SSW,210,0.0,6.0,49,0.00,,,0.00,,2013-05-17 19:40:00,
2013-05-17 15:51:00,78.0,57.0,30.09,SSW,210,0.0,6.0,49,0.00,,,0.00,,2013-05-17 19:51:00,
2013-05-17 16:01:00,-999.0,-99.9,30.09,ESE,117,0.0,4.0,51,0.00,,,0.00,,2013-05-17 20:01:00,
2013-05-17 16:09:00,79.0,57.0,30.09,North,9,0.0,5.0,47,0.00,,,0.00,,2013-05-17 20:09:00,
2013-05-17 16:20:00,79.0,57.0,30.09,North,9,0.0,5.0,47,0.00,,,0.00,,2013-05-17 20:20:00,
2013-05-17 16:30:00,80.0,58.0,30.09,NW,308,1.0,10.0,47,0.00,,,0.00,,2013-05-17 20:30:00,
2013-05-17 16:40:00,79.0,56.0,30.08,SSE,164,2.0,10.0,46,0.00,,,0.00,,2013-05-17 20:40:00,
2013-05-17 16:50:00,79.0,56.0,30.08,SSE,164,2.0,10.0,46,0.00,,,0.00,,2013-05-17 20:50:00,
2013-05-17 16:58:00,79.0,55.0,30.08,SSE,153,5.0,15.0,44,0.00,,,0.00,,2013-05-17 20:58:00,
2013-05-17 17:07:00,79.0,56.0,30.07,SSW,202,0.0,9.0,46,0.00,,,0.00,,2013-05-17 21:07:00,
2013-05-17 17:17:00,79.0,56.0,30.07,SSW,202,0.0,9.0,46,0.00,,,0.00,,2013-05-17 21:17:00,
2013-05-17 17:26:00,78.0,56.0,30.07,SSW,195,2.0,11.0,47,0.00,,,0.00,,2013-05-17 21:26:00,
2013-05-17 17:39:00,77.0,57.0,30.06,ESE,113,1.0,6.0,51,0.00,,,0.00,,2013-05-17 21:39:00,
2013-05-17 17:49:00,77.0,57.0,30.06,ESE,113,1.0,6.0,51,0.00,,,0.00,,2013-05-17 21:49:00,
2013-05-17 17:58:00,77.0,57.0,30.07,NNW,327,2.0,8.0,51,0.00,,,0.00,,2013-05-17 21:58:00,
2013-05-17 18:07:00,75.0,58.0,30.07,West,259,0.0,3.0,55,0.00,,,0.00,,2013-05-17 22:07:00,
2013-05-17 18:17:00,75.0,58.0,30.07,West,259,0.0,3.0,55,0.00,,,0.00,,2013-05-17 22:17:00,
2013-05-17 18:28:00,74.0,56.0,30.07,NW,326,0.0,7.0,54,0.00,,,0.00,,2013-05-17 22:28:00,
2013-05-17 18:38:00,72.0,56.0,30.08,SSE,160,1.0,3.0,57,0.00,,,0.00,,2013-05-17 22:38:00,
2013-05-17 18:47:00,72.0,56.0,30.08,SSE,160,1.0,3.0,57,0.00,,,0.00,,2013-05-17 22:47:00,
2013-05-17 18:55:00,72.0,57.0,30.07,WSW,254,0.0,4.0,59,0.00,,,0.00,,2013-05-17 22:55:00,
2013-05-17 19:04:00,72.0,57.0,30.07,South,190,1.0,3.0,60,0.00,,,0.00,,2013-05-17 23:04:00,
2013-05-17 19:13:00,72.0,57.0,30.07,South,190,1.0,3.0,60,0.00,,,0.00,,2013-05-17 23:13:00,
2013-05-17 19:23:00,72.0,58.0,30.07,SSE,155,1.0,9.0,61,0.00,,,0.00,,2013-05-17 23:23:00,
2013-05-17 19:37:00,71.0,55.0,30.07,South,190,2.0,9.0,57,0.00,,,0.00,,2013-05-17 23:37:00,
2013-05-17 19:47:00,71.0,55.0,30.07,South,190,2.0,9.0,57,0.00,,,0.00,,2013-05-17 23:47:00,
2013-05-17 19:54:00,71.0,55.0,30.07,South,170,0.0,9.0,57,0.00,,,0.00,,2013-05-17 23:54:00,
2013-05-17 20:02:00,70.0,53.0,30.08,SSW,192,0.0,9.0,55,0.00,,,0.00,,2013-05-18 00:02:00,
2013-05-17 20:14:00,70.0,53.0,30.08,SSW,192,0.0,9.0,55,0.00,,,0.00,,2013-05-18 00:14:00,
2013-05-17 20:22:00,70.0,53.0,30.09,WSW,252,0.0,2.0,54,0.00,,,0.00,,2013-05-18 00:22:00,
2013-05-17 20:33:00,69.0,53.0,30.09,South,175,0.0,3.0,56,0.00,,,0.00,,2013-05-18 00:33:00,
2013-05-17 20:44:00,69.0,53.0,30.09,South,175,0.0,3.0,56,0.00,,,0.00,,2013-05-18 00:44:00,
2013-05-17 20:54:00,68.0,52.0,30.10,WSW,245,0.0,2.0,57,0.00,,,0.00,,2013-05-18 00:54:00,
2013-05-17 21:03:00,67.0,51.0,30.10,South,191,0.0,1.0,57,0.00,,,0.00,,2013-05-18 01:03:00,
2013-05-17 21:13:00,67.0,51.0,30.10,South,191,0.0,1.0,57,0.00,,,0.00,,2013-05-18 01:13:00,
2013-05-17 21:24:00,66.0,52.0,30.10,South,191,0.0,1.0,60,0.00,,,0.00,,2013-05-18 01:24:00,
2013-05-17 21:32:00,66.0,52.0,30.10,South,191,0.0,0.0,61,0.00,,,0.00,,2013-05-18 01:32:00,
2013-05-17 21:43:00,66.0,52.0,30.10,South,191,0.0,0.0,61,0.00,,,0.00,,2013-05-18 01:43:00,
2013-05-17 21:52:00,65.0,52.0,30.10,South,191,0.0,1.0,62,0.00,,,0.00,,2013-05-18 01:52:00,
2013-05-17 22:02:00,64.0,52.0,30.10,SSE,167,0.0,1.0,64,0.00,,,0.00,,2013-05-18 02:02:00,
2013-05-17 22:12:00,64.0,52.0,30.10,SSE,167,0.0,1.0,64,0.00,,,0.00,,2013-05-18 02:12:00,
2013-05-17 22:23:00,64.0,52.0,30.11,SSE,167,0.0,4.0,64,0.00,,,0.00,,2013-05-18 02:23:00,
2013-05-17 22:32:00,64.0,52.0,30.11,SSE,167,0.0,3.0,66,0.00,,,0.00,,2013-05-18 02:32:00,
2013-05-17 22:42:00,64.0,52.0,30.11,SSE,167,0.0,3.0,66,0.00,,,0.00,,2013-05-18 02:42:00,
2013-05-17 22:54:00,64.0,52.0,30.12,SSE,167,0.0,0.0,66,0.00,,,0.00,,2013-05-18 02:54:00,
2013-05-17 23:03:00,64.0,53.0,30.12,SSW,198,0.0,3.0,68,0.00,,,0.00,,2013-05-18 03:03:00,
2013-05-17 23:12:00,64.0,53.0,30.12,SSW,198,0.0,3.0,68,0.00,,,0.00,,2013-05-18 03:12:00,
2013-05-17 23:23:00,63.0,53.0,30.12,SSW,198,0.0,1.0,69,0.00,,,0.00,,2013-05-18 03:23:00,
2013-05-17 23:33:00,63.0,53.0,30.13,SSW,198,0.0,0.0,71,0.00,,,0.00,,2013-05-18 03:33:00,
2013-05-17 23:43:00,63.0,53.0,30.13,SSW,198,0.0,0.0,71,0.00,,,0.00,,2013-05-18 03:43:00,
2013-05-17 23:53:00,62.0,52.0,30.12,SSW,198,0.0,0.0,71,0.00,,,0.00,,2013-05-18 03:53:00,